FW5964 Weather Reports


Display with metric or nautical units.
time (UTC)temp
F
wind
direction
speed
MPH
gust
MPH
rain 1hr
in
rain 24hr
in
rain mn
in
humidity
%
barometer
mb
20260503223054 64 342 1.0 4.0 0.00 0.00 0.00 36 1016.7
20260503221554 64 0 1.0 3.0 0.00 0.00 0.00 36 1016.8
20260503214558 63 96 0.0 5.0 0.00 0.00 0.00 38 1016.7
20260503213054 63 173 2.0 11.0 0.00 0.00 0.00 34 1016.7
20260503211555 64 24 0.0 6.0 0.00 0.00 0.00 36 1016.7
20260503210054 63 71 2.0 6.0 0.00 0.00 0.00 36 1016.7
20260503204605 63 163 3.0 8.0 0.00 0.00 0.00 35 1016.6
20260503203101 63 53 1.0 6.0 0.00 0.00 0.00 35 1016.6
20260503201559 63 265 1.0 8.0 0.00 0.00 0.00 36 1016.7
20260503200101 62 124 3.0 7.0 0.00 0.00 0.00 34 1016.9
20260503194602 62 130 1.0 8.0 0.00 0.00 0.00 38 1016.9
20260503193102 61 218 3.0 9.0 0.00 0.00 0.00 35 1017.1
20260503191554 61 75 2.0 8.0 0.00 0.00 0.00 37 1017.3
20260503190057 61 127 4.0 10.0 0.00 0.00 0.00 37 1017.5
20260503184610 60 64 3.0 8.0 0.00 0.00 0.00 39 1018.0
20260503183057 60 145 3.0 10.0 0.00 0.00 0.00 39 1017.8
20260503181604 60 51 2.0 13.0 0.00 0.00 0.00 42 1017.8
20260503180116 60 204 3.0 9.0 0.00 0.00 0.00 41 1017.8
20260503174559 59 130 3.0 9.0 0.00 0.00 0.00 44 1017.8
20260503173109 59 158 3.0 10.0 0.00 0.00 0.00 43 1018.0
20260503171558 57 57 3.0 14.0 0.00 0.00 0.00 43 1018.3
20260503170106 58 209 2.0 12.0 0.00 0.00 0.00 43 1018.3
20260503160114 56 53 4.0 12.0 0.00 0.00 0.00 45 1018.7
20260503081551 52 224 2.0 8.0 0.00 0.01 0.00 68 1014.2
20260503071602 53 243 2.0 6.0 0.00 0.01 0.00 66 1013.6
20260503060111 51 0 0.0 1.0 0.00 0.01 0.00 73 1013.0
20260503054602 51 0 0.0 3.0 0.00 0.01 0.00 72 1013.0
20260503053054 51 0 0.0 1.0 0.00 0.01 0.00 69 1013.2
20260503051552 52 208 0.0 1.0 0.00 0.01 0.00 68 1013.2
20260503050051 53 0 0.0 2.0 0.00 0.01 0.00 67 1013.1
20260503044549 53 217 0.0 3.0 0.00 0.01 0.00 66 1013.2
20260503043053 53 210 0.0 3.0 0.00 0.01 0.00 66 1013.3
20260503041552 54 86 0.0 3.0 0.00 0.01 0.00 66 1013.3
20260503040059 54 115 0.0 2.0 0.00 0.01 0.00 67 1013.3
20260503034550 54 75 0.0 1.0 0.00 0.01 0.01 67 1013.4
20260503033052 54 0 0.0 1.0 0.00 0.01 0.01 67 1013.1
20260503031551 54 0 0.0 2.0 0.00 0.01 0.01 67 1012.9
20260503024552 55 0 0.0 2.0 0.00 0.01 0.01 66 1013.4
20260503023059 55 0 0.0 2.0 0.00 0.01 0.01 65 1013.2
20260503021559 55 0 0.0 4.0 0.00 0.01 0.01 64 1013.2
20260503020058 55 231 0.0 3.0 0.00 0.01 0.01 63 1013.1
20260503014559 55 162 0.0 6.0 0.00 0.01 0.01 63 1013.1
20260503013054 55 233 0.0 2.0 0.00 0.01 0.01 62 1013.0
20260503011602 55 255 1.0 6.0 0.00 0.01 0.01 61 1012.7
20260503010058 55 248 0.0 4.0 0.00 0.01 0.01 60 1012.9
20260503004559 55 0 1.0 5.0 0.00 0.01 0.01 59 1012.6
20260503003115 55 161 0.0 5.0 0.00 0.01 0.01 58 1012.5
20260503001605 55 179 2.0 10.0 0.00 0.01 0.01 59 1012.2
20260503000051 55 219 2.0 9.0 0.00 0.01 0.01 60 1012.2
20260502234552 55 236 2.0 10.0 0.00 0.01 0.01 58 1012.1
20260502233051 56 224 4.0 11.0 0.00 0.01 0.01 54 1011.9
20260502231554 56 236 4.0 11.0 0.00 0.01 0.01 50 1011.9
20260502230054 56 217 2.0 12.0 0.00 0.01 0.01 46 1012.0
20260502224556 56 217 3.0 13.0 0.00 0.01 0.01 47 1011.9